Flag for U.S.A. Weather past 2 weeks in Wilmington, Delaware, U.S.A.

Now
79 °F

Clear.


Feels Like: 82 °F
Forecast: 71 / 85 °F
Wind: 6 mph from East

Location: New Castle County Airport

Current Time: Sep 4, 2015 at 12:41:01 AM

Latest Report: Sep 3, 2015 at 11:51 PM


Visibility: 7 mi

Pressure: 29.89 "Hg

Humidity: 74%

Dew point: 70 °F

Location of WilmingtonLocation

Historic Weather in Wilmington — Graph

°F

Wilmington temperature yesterday

Maximum temperature yesterday: 94 °F (at 2:51 PM)
Minimum temperature yesterday: 70 °F (at 2:51 AM)
Average temperature yesterday: 82 °F

Past Weeks' High & Low Weather Summary

 TemperatureHumidityPressure
High94 °F (Sep 3, 2:51 PM)100% (Sep 2, 6:51 AM)30.23 "Hg (Sep 2, 6:51 AM)
Low57 °F (Aug 28, 6:51 AM)29% (Sep 2, 4:51 PM)29.83 "Hg (Sep 3, 5:51 PM)
Average76 °F66%30.02 "Hg
* Reported Aug 19 10:51 PM — Sep 3 10:51 PM, Wilmington, Weather by CustomWeather, © 2015

Note: Actual official high and low records may vary slightly from our data, if they occured in-between our weather recording intervals... More about our weather records

Advertising

Wilmington weather history for previous 24 hours

 ConditionsComfort  
Time TempWeatherWind HumidityBarometerVisibility
10:51 PM
Thu, Sep 3
81 °FPassing clouds.No wind67%29.88 "Hg8 mi
9:51 PM82 °FClear.7 mph58%29.88 "Hg10 mi
8:51 PM86 °FThundershowers. Passing clouds.6 mph51%29.88 "Hg10 mi
7:51 PM85 °FSunny.5 mph51%29.85 "Hg10 mi
6:51 PM88 °FSunny.6 mph45%29.83 "Hg10 mi
5:51 PM93 °FSunny.9 mph38%29.83 "Hg10 mi
4:51 PM93 °FSunny.7 mph37%29.83 "Hg10 mi
3:51 PM94 °FSunny.9 mph36%29.84 "Hg10 mi
2:51 PM94 °FSunny.7 mph36%29.85 "Hg10 mi
1:51 PM92 °FPassing clouds.7 mph44%29.87 "Hg8 mi
12:51 PM92 °FPassing clouds.10 mph44%29.88 "Hg9 mi
11:51 AM90 °FSunny.12 mph45%29.90 "Hg8 mi
10:51 AM88 °FSunny.7 mph50%29.91 "Hg7 mi
9:51 AM83 °FSunny.3 mph59%29.91 "Hg7 mi
8:51 AM79 °FSunny.5 mph67%29.91 "Hg5 mi
7:51 AM74 °FHaze.5 mph82%29.91 "Hg4 mi
6:51 AM71 °FPassing clouds.3 mph84%29.90 "Hg4 mi
5:51 AM71 °FClear.No wind81%29.89 "Hg6 mi
4:51 AM70 °FClear.No wind84%29.88 "Hg6 mi
3:51 AM73 °FClear.No wind76%29.88 "Hg7 mi
2:51 AM70 °FClear.3 mph81%29.88 "Hg7 mi
1:51 AM72 °FClear.6 mph78%29.90 "Hg7 mi
12:51 AM74 °FClear.3 mph74%29.91 "Hg8 mi
Weather by CustomWeather, © 2015

See weather overviewHow to use our weather pages